Showing default

XM-3, 28626

Orbit data source: Space-Track

XM-3, 28626 is a payload satellite owned by XM Radio (US) in GEO that was launched on Tue, 01 Mar 2005 UTC via a ZENIT-3SL launch vehicle from the Sea Launch (SEAL). Payload-class satellites include a variety of spacecraft equipped with specific instruments for various scientific and technological missions. These include communications satellites like Starlink; space stations such as the ISS; scientific satellites like the Hubble; Earth observation satellites from companies like Planet Labs, Umbra, and HawkEye 360; GPS; miniature CubeSats for education and research; and military/defense satellites.

Loading next visibility...
Identifier
28626, 2005-008A
Orbit
GEO
Country
Flag of USUS
Related business
Manufacturer
Boeing/ES
Mission
Operational Commercial Communications
Bus & Motor
BSS-702HP, R-4D-11-300
Mass
4,682 kg wet, ~2,500 kg dry
Launch date (UTC)
2005-03-01 (21 years ago)
Launch vehicle
ZENIT-3SL
Launch site
Sea Launch (SEAL)
Object type
Payload
Rocket body
Debris
Shape & HBR
Box + 2 Pan, 20.2 m
Radar Cross Section
61.334 m², Large (>1 m²)

Expand to show TLE details & history
Last TLE update: 8 hours ago

TLE from 8 hours ago
0 XM-3
1 28626U 05008A   25260.85125072 -.00000220  00000-0  00000-0 0  9997
2 28626   0.0419   0.4125 0000202 208.9696   7.7852  1.00271257 39899
Epoch: 2025-09-17T20:25Z
TLE epoch observation values (Epoch: 2025-09-17T20:25:48.062Z)
Latitude
0.01794°
Longitude
-86.30203°
Altitude
35,785.387 km
Speed
3.075 km/s
True Right ascension
14h 28m 40s
True Declination
0° 01' 05"
Sunlit
Object was in daylight at epoch
Visualization orbit readout
Latitude
Unknown
Longitude
Unknown
Altitude
Unknown
Speed
Unknown
Apparent Right ascension
Unknown
Apparent Declination
Unknown
Sunlit
N/A
Visualization observer readout
Local Sidereal Time
21:09:08
Azimuth
Unknown
Elevation
Unknown
Doppler factor
Unknown
Orbital elements
Apogee altitude
35,788.665 km
Perigee altitude
35,786.962 km
Semi-major axis
42,165.95 km
Eccentricity
0.00002
Inclination
0.0419°
RAAN
0.4125°
Arg. of periapsis
208.9696°
True anomaly
7.78551°
Mean anomaly
7.7852°
Eccentric anomaly
7.78536°
Mean motion
0.25067 °/min
Orbital period
1,436.16 mins
BSTAR
0
Loading maneuver chart data...
Computing Atmospheric mass density...
Loading historical data...
Loading historical data...
Loading historical data...
Loading historical data...
Loading historical data...
Loading historical data...
Loading historical data...
Other satellites on launch #8 in the year 2005 (2005-03-01 UTC)

Documentation

Showing up to 5 results
|